Cambridge, United Kingdom

9:10 AM BST on August 23, 2017 (GMT +0100)
Cambridge

Weather History for EGSC - August, 2017

Change the Weather History Date:

Sunday, August 13, 2017

  Actual Average Record
Temperature  
Mean Temperature 62 °F -  
Max Temperature 69 °F 68 °F 80 °F (1997)
Min Temperature 55 °F 55 °F 48 °F (2013)
Degree Days  
Heating Degree Days 3    
Growing Degree Days 12 (Base 50)    
Moisture  
Dew Point 45 °F    
Average Humidity 49    
Maximum Humidity 77    
Minimum Humidity 37    
Precipitation  
Precipitation 0.00 in - - ()
Sea Level Pressure  
Sea Level Pressure 30.15 in    
Wind  
Wind Speed 5 mph ()    
Max Wind Speed 8 mph    
Max Gust Speed -    
Visibility 6.2 miles    
Events      
Averages and records for this station are not official NWS values.
T = Trace of Precipitation, MM = Missing Value Source: Averaged Metar Reports

Daily Weather History Graph

Daily Weather History Graph

Search for Another Location

Airport or City:

Trip Planner

Search our weather history database for the weather conditions in past years. The results will help you decide how hot, cold, wet, or windy it might be!

Date:

Astronomy

Aug. 13, 2017 Rise Set
Actual Time 5:39 AM BST 8:27 PM BST
Civil Twilight 5:00 AM BST 9:06 PM BST
Nautical Twilight 4:10 AM BST 9:55 PM BST
Astronomical Twilight 3:07 AM BST 10:57 PM BST
Moon 11:06 PM BST (8/13) 12:05 PM BST (8/13)
Length of Visible Light 16h 05m
Length of Day
14h 47m
Waning Gibbous, 68% of the Moon is Illuminated
Aug 13
Waning Gibbous
Aug 15
Last Quarter
Aug 21
New
Aug 29
First Quarter
Sep 6
Full

Hourly Weather History & Observations

Time (BST) Temp. Dew Point Humidity Pressure Visibility Wind Dir Wind Speed Gust Speed Precip Events Conditions
7:50 AM 55.4 °F 48.2 °F 77% 30.15 in - NW 4.6 mph - N/A   Clear
8:20 AM 57.2 °F 48.2 °F 72% 30.15 in - WNW 6.9 mph - N/A   Clear
8:50 AM 59.0 °F 48.2 °F 67% 30.15 in - NW 5.8 mph - N/A   Clear
9:50 AM 60.8 °F 50.0 °F 68% 30.15 in 6.2 mi NW 4.6 mph - N/A   Partly Cloudy
10:20 AM 62.6 °F 50.0 °F 63% 30.18 in 6.2 mi NNW 8.1 mph - N/A   Partly Cloudy
10:50 AM 64.4 °F 46.4 °F 52% 30.18 in 6.2 mi NNW 4.6 mph - N/A   Partly Cloudy
11:20 AM 64.4 °F 44.6 °F 49% 30.15 in 6.2 mi North 5.8 mph - N/A   Partly Cloudy
11:50 AM 66.2 °F 44.6 °F 46% 30.15 in 6.2 mi Variable 5.8 mph - N/A   Scattered Clouds
12:20 PM 66.2 °F 42.8 °F 43% 30.15 in 6.2 mi WNW 6.9 mph - N/A   Scattered Clouds
12:50 PM 68.0 °F 42.8 °F 40% 30.15 in 6.2 mi Variable 5.8 mph - N/A   Partly Cloudy
1:20 PM 66.2 °F 42.8 °F 43% 30.15 in 6.2 mi NW 6.9 mph - N/A   Partly Cloudy
1:50 PM 68.0 °F 42.8 °F 40% 30.15 in 6.2 mi Variable 5.8 mph - N/A   Partly Cloudy
2:20 PM 68.0 °F 42.8 °F 40% 30.15 in 6.2 mi NW 4.6 mph - N/A   Partly Cloudy
2:50 PM 68.0 °F 42.8 °F 40% 30.15 in 6.2 mi NW 5.8 mph - N/A   Partly Cloudy
3:20 PM 69.8 °F 42.8 °F 38% 30.15 in 6.2 mi WSW 4.6 mph - N/A   Partly Cloudy
3:50 PM 68.0 °F 41.0 °F 37% 30.15 in 6.2 mi Variable 2.3 mph - N/A   Partly Cloudy
4:20 PM 69.8 °F 44.6 °F 40% 30.12 in 6.2 mi Variable 5.8 mph - N/A   Partly Cloudy
4:50 PM 69.8 °F 42.8 °F 38% 30.12 in 6.2 mi Variable 4.6 mph - N/A   Partly Cloudy
5:20 PM 69.8 °F 44.6 °F 40% 30.12 in 6.2 mi Variable 1.2 mph - N/A   Partly Cloudy
5:50 PM 69.8 °F 42.8 °F 38% 30.12 in 6.2 mi Variable 3.5 mph - N/A   Partly Cloudy